Hourly Data Report for October 26, 2012

All times are specified in Local Standard Time (LST). Add 1 hour to adjust for Daylight Saving Time where and when it is observed.

KITCHENER/WATERLOO
ONTARIO

43°27'39.000" N
80°22'43.000" W
321.60 m
6144239
71368
YKF

Download Data

Hourly Data (October 2012)
Hourly Data Report for October 26, 2012
Temp Definition
°C
Dew Point Temp Definition
°C
Rel Hum Definition
%
Wind Dir Definition
10's deg

Wind Spd Definition
km/h
Visibility Definition
km
Stn Press Definition
kPa
Hmdx Definition


Wind Chill Definition


Weather Definition


TIME
00:00 Legend Double Dagger 14.2 9.5 73 17 13 16.1 97.59     LegendNANA
01:00 Legend Double Dagger 14.4 9.3 71 19 13 16.1 97.54     LegendNANA
02:00 Legend Double Dagger 15.9 9.4 65 20 18 16.1 97.57     LegendNANA
03:00 Legend Double Dagger 15.7 9.4 66 17 17 16.1 97.60     LegendNANA
04:00 Legend Double Dagger 14.2 9.3 72 18 13 16.1 97.62     LegendNANA
05:00 Legend Double Dagger 14.7 9.5 71 18 18 16.1 97.65     LegendNANA
06:00 Legend Double Dagger 13.6 9.4 75 19 9 16.1 97.68     LegendNANA
07:00 Legend Double Dagger 13.0 9.7 80 23 9 16.1 97.77     LegendNANA
08:00 Legend Double Dagger 14.1 11.6 85 27 13 16.1 97.88     LegendNANA
09:00 Legend Double Dagger 11.7 9.9 89 32 21 16.1 98.00     LegendNANA
10:00 Legend Double Dagger 9.9 7.3 84 32 22 16.1 98.08     LegendNANA
11:00 Legend Double Dagger 10.0 6.9 81 32 21 16.1 98.15     LegendNANA
12:00 Legend Double Dagger 8.8 6.7 86 32 22 16.1 98.19     LegendNANA
13:00 Legend Double Dagger 8.0 6.8 92 33 22 8.1 98.22     LegendNANA
14:00 Legend Double Dagger 7.7 6.7 93 33 18 16.1 98.23     LegendNANA
15:00 Legend Double Dagger 7.6 6.4 92 35 17 14.5 98.25     LegendNANA
16:00 Legend Double Dagger 7.5 6.3 92 33 11 16.1 98.30     LegendNANA
17:00 Legend Double Dagger 7.1 5.7 91 34 21 16.1 98.29     LegendNANA
18:00 Legend Double Dagger 6.7 5.7 93 31 11 16.1 98.41     LegendNANA
19:00 Legend Double Dagger 6.4 5.3 93 34 15 16.1 98.42     LegendNANA
20:00 Legend Double Dagger 6.1 4.3 88 32 9 16.1 98.46     LegendNANA
21:00 Legend Double Dagger 5.2 3.9 91 33 15 16.1 98.44     LegendNANA
22:00 Legend Double Dagger 4.9 3.9 93 32 11 16.1 98.49     LegendNANA
23:00 Legend Double Dagger 5.0 3.8 92 34 8 16.1 98.43     LegendNANA

Notes on Data Quality.

Legend

  • E = Estimated
  • M = Missing
  • NA = Not Available
  • ‡ = Partner data that is not subject to review by the National Climate Archives
Date modified: